Flag for Germany Weather past 2 weeks in Bornheim (Rheinland), North Rhine-Westphalia, Germany

Now
80 °F

Sunny.


Feels Like: 80 °F
Forecast: 63 / 88 °F
Wind: 5 mph from Northeast

Location: Bonn-Hangelar

Current Time: Jun 30, 2015 at 5:05:04 PM

Latest Report: Jun 30, 2015 at 4:00 PM


Visibility: 22 mi

Pressure: 30.10 "Hg

Humidity: 36%

Dew point: 51 °F

Location of Bornheim (Rheinland)Location

Historic Weather in Bornheim (Rheinland) — Graph

°F

Bornheim (Rheinland) temperature yesterday

Maximum temperature yesterday: 74 °F (at 5:00 PM)
Minimum temperature yesterday: 61 °F (at 8:00 AM)
Average temperature yesterday: 67 °F

Past Weeks' High & Low Weather Summary

 TemperatureHumidityPressure
High79 °F (Jun 30, 3:00 PM)100% (Jun 18, 4:00 AM)30.32 "Hg (Jun 18, 4:00 AM)
Low43 °F (Jun 17, 6:00 AM)40% (Jun 30, 3:00 PM)29.72 "Hg (Jun 22, 8:00 PM)
Average59 °F76%30.10 "Hg
* Reported Jun 15 3:00 PM — Jun 30 3:00 PM, Bornheim (Rheinland), Weather by CustomWeather, © 2015

Note: Actual official high and low records may vary slightly from our data, if they occured in-between our weather recording intervals... More about our weather records

Advertising

Bornheim (Rheinland) weather history for previous 24 hours

 ConditionsComfort  
Time TempWeatherWind HumidityBarometerVisibility
3:00 PM
Tue, Jun 30
79 °FSunny.3 mph40%30.12 "Hg17 mi
2:00 PM77 °FSunny.3 mph43%30.14 "Hg8 mi
1:00 PM76 °FSunny.3 mph50%30.15 "Hg14 mi
12:00 PM74 °FSunny.3 mph52%30.16 "Hg12 mi
11:00 AM73 °FSunny.3 mph57%30.17 "Hg12 mi
10:00 AM71 °FSunny.2 mph61%30.18 "Hg12 mi
9:00 AM69 °FSunny.2 mph69%30.18 "Hg11 mi
8:00 AM65 °FSunny.2 mph82%30.19 "Hg9 mi
7:00 AM60 °FSunny.1 mph88%30.19 "Hg7 mi
5:00 AM56 °FClear.1 mph90%30.19 "Hg12 mi
4:00 AM58 °FClear.1 mph81%30.19 "Hg12 mi
3:00 AM59 °FClear.1 mph79%30.20 "Hg12 mi
2:00 AM63 °FClear.1 mph71%30.20 "Hg18 mi
1:00 AM63 °FOvercast.2 mph72%30.21 "Hg18 mi
12:00 AM64 °FOvercast.1 mph69%30.20 "Hg19 mi
11:00 PM
Mon, Jun 29
64 °FOvercast.2 mph67%30.21 "Hg22 mi
10:00 PM67 °FOvercast.2 mph70%30.19 "Hg15 mi
9:00 PM68 °FOvercast.2 mph71%30.18 "Hg17 mi
8:00 PM71 °FOvercast.3 mph58%30.17 "Hg19 mi
7:00 PM73 °FOvercast.3 mph55%30.16 "Hg15 mi
6:00 PM73 °FOvercast.3 mph54%30.16 "Hg19 mi
5:00 PM74 °FOvercast.3 mph52%30.16 "Hg14 mi
Weather by CustomWeather, © 2015

See weather overviewHow to use our weather pages